Home   Weather   Gaborone   Past weeks

Flag for Botswana Past Weather in Gaborone, Botswana — Yesterday and Last 2 Weeks

Now
95 °F

Partly sunny.


Feels Like: 92 °F
Forecast: 73 / 94 °F
Wind: 3 mph from East

Location: Seretse Khama International Airport

Current Time: Dec 4, 2016 at 6:32:04 pm

Latest Report: Dec 4, 2016 at 6:00 pm


Visibility: N/A

Pressure: 29.89 "Hg (26.73 "Hg at 1009m altitude)

Humidity: 22%

Dew Point: 50 °F

Location of GaboroneLocation

Past Weather in Gaborone — Graph

°F

Gaborone Temperature Yesterday

Maximum temperature yesterday: 91 °F (at 4:00 pm)
Minimum temperature yesterday: 70 °F (at 6:00 am)
Average temperature yesterday: 82 °F

High & Low Weather Summary for the Past Weeks

 TemperatureHumidityPressure
High99 °F (Nov 30, 4:00 pm)100% (Nov 20, 6:00 am)30.18 "Hg (Nov 20, 6:00 am)
Low61 °F (Nov 19, 6:00 pm)13% (Dec 1, 6:00 pm)29.83 "Hg (Dec 2, 5:00 pm)
Average78 °F52%30.04 "Hg
* Reported Nov 19 5:00 pm — Dec 4 5:00 pm, Gaborone, Weather by CustomWeather, © 2016

Note: Actual official high and low records may vary slightly from our data, if they occured in-between our weather recording intervals... More about our weather records

Advertising

Gaborone Weather History for the Previous 24 Hours

Scroll right to see more
 ConditionsComfort  
Time TempWeatherWind HumidityBarometerVisibility
5:00 pm
Sun, Dec 4
97 °FScattered clouds.5 mph20%29.89 "HgN/A
4:00 pm99 °FScattered clouds.5 mph21%29.89 "HgN/A
3:00 pm97 °FScattered clouds.8 mph23%29.95 "HgN/A
2:00 pm97 °FPassing clouds.3 mph23%29.98 "HgN/A
1:00 pm95 °FPassing clouds.7 mph26%30.01 "HgN/A
12:00 pm93 °FPassing clouds.7 mph30%30.04 "HgN/A
11:00 am90 °FPassing clouds.6 mph36%30.07 "HgN/A
10:00 am86 °FPassing clouds.6 mph40%30.07 "HgN/A
9:00 am82 °FPassing clouds.10 mph48%30.07 "HgN/A
8:00 am81 °FSunny.10 mph48%30.09 "Hg10 mi
6:00 am73 °FSunny.6 mph61%30.09 "Hg10 mi
5:00 am73 °FPassing clouds.3 mph57%30.07 "HgN/A
4:00 am73 °FClear.5 mph57%30.01 "Hg10 mi
3:00 am75 °FClear.7 mph50%30.01 "Hg10 mi
2:00 am75 °FClear.6 mph50%30.01 "Hg10 mi
1:00 am77 °FClear.6 mph47%30.01 "Hg10 mi
11:00 pm
Sat, Dec 3
81 °FClear.7 mph45%30.01 "Hg10 mi
10:00 pm81 °FClear.5 mph45%29.98 "Hg10 mi
9:00 pm82 °FClear.6 mph42%29.98 "Hg10 mi
8:00 pm84 °FClear.8 mph40%29.95 "Hg10 mi
7:00 pm88 °FPassing clouds.7 mph33%29.95 "HgN/A
6:00 pm91 °FPassing clouds.9 mph30%29.92 "HgN/A
Weather by CustomWeather, © 2016

See weather overviewHow to use our weather pages